{"data":{"norad_id":62656,"intl_designator":"2025-009AZ","name":"TRANSPORTER-12 OBJECT AZ","alt_names":[],"object_type":"PAYLOAD","status":"ACTIVE","operator":null,"country":"TBD","launch_date":"2025-01-14","launch_site_code":"AFWTR","launch_vehicle":null,"mission":null,"orbit_class":"UNKNOWN","rcs_meters":null,"size_class":null,"mass_kg":null,"dimensions":null,"purposes":[],"wikipedia_slug":null,"has_3d_model":false,"image_url":null,"decayed_at":null,"tle_current":{"epoch":"2026-09-22T17:14:10.811616Z","epoch_age_seconds":126048,"freshness":"FRESH","line1":"1 62656U 25009AZ  26265.71818069  .00009914  00000+0  29283-3 0  9991","line2":"2 62656  97.3893 348.9168 0001373  37.3246 322.8093 15.35156321 93971","mean_motion":15.35156321,"eccentricity":0.0001373,"inclination_deg":97.3893,"raan_deg":348.9168,"arg_perigee_deg":37.3246,"mean_anomaly_deg":322.8093,"bstar":0.00029283,"rev_number":9397,"period_min":93.801522379297,"perigee_km":459.51727891668,"apogee_km":461.39515661428,"semimajor_km":6838.5932177655,"source":"CELESTRAK","updated_at":"2026-09-23T09:00:21.541293Z"}}}